STARLINK-35039

Last updated on Tue Sep 16 2025 00:02:08 GMT+0000 (Coordinated Universal Time)

1 65451U 25194T 25257.82802876 -.00113308 00000+0 -66547-3 0 9992 2 65451 97.5978 109.1450 0001854 39.2029 320.9371 15.78463548 3066
UTC large
Height (km)
Speed (km/s)
/
Latitude / Longitude
Inclination (degrees)
Orbital Period (minutes)
Azimuth
Elevation
Range (km)
Doppler Factor

Next 0 passes for location: London (51.5072 / 0.1276)

Sorry there are no passes over London.